GW5760 Weather Reports


time (UTC)temp
F
wind
direction
speed
knots
gust
knots
rain 1hr
in
rain 24hr
in
rain mn
in
humidity
%
barometer
mb
20260508013616 74 0.0 0.0 0.00 0.00 0.00 60 1012.9
20260508012617 74 203 3.5 7.0 0.00 0.00 0.00 59 1012.9
20260508011617 75 0.0 0.0 0.00 0.00 0.00 59 1012.8
20260508010616 75 0.0 0.0 0.00 0.00 0.00 58 1012.9
20260508005618 76 0.0 2.6 0.00 0.00 0.00 58 1012.8
20260508004618 76 0.0 0.0 0.00 0.00 0.00 57 1012.8
20260508003617 77 0.0 0.0 0.00 0.00 0.00 56 1012.8
20260508002617 77 0.0 0.0 0.00 0.00 0.00 56 1012.8
20260508001618 77 0.0 0.0 0.00 0.00 0.00 55 1012.8
20260508000617 78 0.0 0.0 0.00 0.00 0.00 55 1012.7
20260507235617 78 0.0 0.0 0.00 0.00 0.00 54 1012.8
20260507234638 78 0.0 0.0 0.00 0.00 0.00 54 1012.8
20260507233618 78 0.0 0.0 0.00 0.00 0.00 54 1012.8
20260507232617 78 0.0 0.0 0.00 0.00 0.00 54 1012.9
20260507231617 77 0.0 0.0 0.00 0.00 0.00 54 1012.9
20260507230617 78 0.0 0.0 0.00 0.00 0.00 52 1013.0
20260507225638 79 0.0 0.0 0.00 0.00 0.00 51 1013.0
20260507224617 79 0.0 0.0 0.00 0.00 0.00 51 1013.1
20260507223617 78 0.0 0.0 0.00 0.00 0.00 52 1013.2
20260507222638 78 0.0 0.0 0.00 0.00 0.00 53 1013.1
20260507221658 78 0.0 0.0 0.00 0.00 0.00 52 1013.2
20260507220617 78 0.0 0.0 0.00 0.00 0.00 53 1013.4
20260507215618 79 0.0 0.0 0.00 0.00 0.00 51 1013.5
20260507214617 78 0.0 0.0 0.00 0.00 0.00 53 1013.6
20260507213617 79 0.0 0.0 0.00 0.00 0.00 51 1013.8
20260507212617 79 0.0 0.0 0.00 0.00 0.00 51 1013.8
20260507211617 78 0.0 0.0 0.00 0.00 0.00 54 1013.8
20260507210617 78 0.0 0.0 0.00 0.00 0.00 53 1013.9
20260507205617 78 0.0 0.0 0.00 0.00 0.00 53 1014.0
20260507204617 78 0.0 3.5 0.00 0.00 0.00 54 1014.1
20260507203617 77 0.0 0.0 0.00 0.00 0.00 56 1014.1
20260507202617 76 0.0 0.0 0.00 0.00 0.00 57 1014.1
20260507201617 76 0.0 0.0 0.00 0.00 0.00 56 1014.2
20260507200637 77 0.0 0.0 0.00 0.00 0.00 56 1014.3
20260507195617 77 0.0 0.0 0.00 0.00 0.00 56 1014.4
20260507194617 77 0.0 0.0 0.00 0.00 0.00 54 1014.5
20260507193618 77 0.0 0.0 0.00 0.00 0.00 53 1014.6
20260507192639 77 0.0 0.0 0.00 0.00 0.00 54 1014.7
20260507191617 77 0.0 0.0 0.00 0.00 0.00 55 1014.9
20260507190617 76 0.0 0.0 0.00 0.00 0.00 55 1015.0
20260507185619 76 0.0 0.0 0.00 0.00 0.00 55 1015.2
20260507184637 77 0.0 0.0 0.00 0.00 0.00 56 1015.3
20260507183617 75 0.0 0.0 0.00 0.00 0.00 57 1015.4
20260507182617 75 0.0 0.0 0.00 0.00 0.00 57 1015.5
20260507181617 75 0.0 0.0 0.00 0.00 0.00 58 1015.6
20260507180617 74 0.0 0.0 0.00 0.00 0.00 59 1015.6
20260507175617 73 0.0 0.0 0.00 0.00 0.00 58 1015.7
20260507174617 74 0.0 0.0 0.00 0.00 0.00 60 1015.7
20260507173617 72 0.0 0.0 0.00 0.00 0.00 61 1015.8
20260507172617 72 0.0 0.0 0.00 0.00 0.00 61 1015.7
20260507171617 71 0.0 0.0 0.00 0.00 0.00 63 1015.8
20260507170617 71 0.0 0.0 0.00 0.00 0.00 63 1015.8
20260507165657 71 0.0 0.0 0.00 0.00 0.00 64 1015.9
20260507164617 70 0.0 0.0 0.00 0.00 0.00 65 1015.9
20260507163617 69 0.0 0.0 0.00 0.00 0.00 66 1016.0
20260507162618 68 0.0 0.0 0.00 0.00 0.00 69 1015.9
20260507161617 67 0.0 0.0 0.00 0.00 0.00 71 1016.0
20260507160618 66 0.0 0.0 0.00 0.00 0.00 72 1016.1
20260507155637 65 0.0 0.0 0.00 0.00 0.00 74 1016.0
20260507154617 64 0.0 0.0 0.00 0.00 0.00 75 1016.1
20260507153617 63 0.0 0.0 0.00 0.00 0.00 75 1016.3
20260507152617 63 0.0 0.0 0.00 0.00 0.00 77 1016.3
20260507151617 62 0.0 0.0 0.00 0.00 0.00 79 1016.2
20260507150617 61 0.0 0.0 0.00 0.00 0.00 80 1016.2
20260507145617 60 0.0 0.0 0.00 0.00 0.00 83 1016.2
20260507144616 59 0.0 0.0 0.00 0.00 0.00 85 1016.2
20260507143617 58 0.0 0.0 0.00 0.00 0.00 85 1016.1
20260507142616 57 0.0 0.0 0.00 0.00 0.00 86 1016.0
20260507141637 57 0.0 0.0 0.00 0.00 0.00 87 1015.8
20260507140617 56 0.0 0.0 0.00 0.00 0.00 87 1015.8
20260507135617 55 0.0 0.0 0.00 0.00 0.00 88 1015.6
20260507134617 55 0.0 0.0 0.00 0.00 0.00 88 1015.6
20260507133617 54 0.0 0.0 0.00 0.00 0.00 88 1015.4
20260507132616 54 0.0 0.0 0.00 0.00 0.00 88 1015.4
20260507131617 54 0.0 0.0 0.00 0.00 0.00 88 1015.2
20260507130616 54 0.0 0.0 0.00 0.00 0.00 87 1015.1
20260507125616 54 0.0 0.0 0.00 0.00 0.00 87 1015.1
20260507124616 54 0.0 0.0 0.00 0.00 0.00 87 1015.1
20260507123639 54 0.0 0.0 0.00 0.00 0.00 87 1015.1
20260507122617 54 0.0 0.0 0.00 0.00 0.00 87 1015.1
20260507121617 54 0.0 0.0 0.00 0.00 0.00 86 1015.2
20260507120617 54 0.0 0.0 0.00 0.00 0.00 86 1015.3
20260507115616 54 0.0 0.0 0.00 0.00 0.00 86 1015.3
20260507114617 54 0.0 0.0 0.00 0.00 0.00 86 1015.3
20260507113636 55 0.0 0.0 0.00 0.00 0.00 86 1015.3
20260507112616 54 0.0 0.0 0.00 0.00 0.00 86 1015.2
20260507111616 54 0.0 0.0 0.00 0.00 0.00 86 1015.3
20260507110616 54 0.0 0.0 0.00 0.00 0.00 86 1015.4
20260507105616 54 0.0 0.0 0.00 0.00 0.00 86 1015.4
20260507104616 54 0.0 0.0 0.00 0.00 0.00 86 1015.3
20260507103636 54 0.0 0.0 0.00 0.00 0.00 86 1015.5
20260507102616 54 0.0 0.0 0.00 0.00 0.00 86 1015.6
20260507101636 54 0.0 0.0 0.00 0.00 0.00 85 1015.6
20260507100616 55 0.0 0.0 0.00 0.00 0.00 85 1015.6
20260507095616 55 0.0 0.0 0.00 0.00 0.00 85 1015.7
20260507094637 55 0.0 0.0 0.00 0.00 0.00 84 1015.7
20260507093618 55 0.0 0.0 0.00 0.00 0.00 84 1015.9
20260507092636 55 0.0 0.0 0.00 0.00 0.00 84 1016.1
20260507091616 55 0.0 0.0 0.00 0.00 0.00 84 1016.2
20260507090616 56 0.0 0.0 0.00 0.00 0.00 84 1016.2
20260507085617 56 0.0 0.0 0.00 0.00 0.00 83 1016.3
20260507084616 56 0.0 0.0 0.00 0.00 0.00 83 1016.5
20260507083616 56 0.0 0.0 0.00 0.00 0.00 82 1016.5
20260507082656 57 0.0 0.0 0.00 0.00 0.00 82 1016.5
20260507081636 57 0.0 0.0 0.00 0.00 0.00 82 1016.5
20260507080616 57 0.0 0.0 0.00 0.00 0.00 82 1016.6
20260507075636 57 0.0 0.0 0.00 0.00 0.00 81 1016.6
20260507074616 58 0.0 0.0 0.00 0.00 0.00 80 1016.6
20260507073616 58 0.0 0.0 0.00 0.00 0.00 80 1016.6
20260507072616 58 0.0 0.0 0.00 0.00 0.00 78 1016.7
20260507071616 59 0.0 0.0 0.00 0.00 0.00 78 1016.7
20260507070616 59 0.0 0.0 0.00 0.00 0.00 77 1016.7
20260507065616 60 0.0 0.0 0.00 0.00 0.00 75 1016.7
20260507064637 60 0.0 0.0 0.00 0.00 0.00 74 1016.9
20260507063616 61 0.0 0.0 0.00 0.00 0.00 73 1017.1
20260507062616 61 0.0 0.0 0.00 0.00 0.00 72 1017.0
20260507061617 62 0.0 0.0 0.00 0.00 0.00 72 1016.9
20260507060616 62 0.0 0.0 0.00 0.00 0.00 73 1016.9
20260507055616 62 0.0 0.0 0.00 0.00 0.00 72 1016.9
20260507054618 63 0.0 0.0 0.00 0.00 0.00 71 1017.0
20260507053618 63 0.0 0.0 0.00 0.00 0.00 71 1016.9
20260507052637 63 0.0 0.0 0.00 0.00 0.00 70 1016.8
20260507051616 63 0.0 0.0 0.00 0.00 0.00 69 1016.8
20260507050617 64 0.0 0.0 0.00 0.00 0.00 69 1016.7
20260507045616 64 0.0 0.0 0.00 0.00 0.00 69 1016.7
20260507044616 64 0.0 0.0 0.00 0.00 0.00 68 1016.7
20260507043616 64 0.0 0.0 0.00 0.00 0.00 68 1016.7
20260507042616 65 0.0 0.0 0.00 0.00 0.00 67 1016.6
20260507041616 65 0.0 0.0 0.00 0.00 0.00 66 1016.6
20260507040636 65 0.0 0.0 0.00 0.00 0.00 66 1016.4
20260507035616 65 0.0 0.0 0.00 0.00 0.00 65 1016.3
20260507034616 66 0.0 0.0 0.00 0.00 0.00 64 1016.2
20260507033636 66 0.0 0.0 0.00 0.00 0.00 64 1016.1
20260507032617 67 0.0 0.0 0.00 0.00 0.00 64 1016.0
20260507031616 67 0.0 0.0 0.00 0.00 0.00 62 1015.8
20260507030619 67 0.0 0.0 0.00 0.00 0.00 62 1015.7
20260507025637 68 0.0 0.0 0.00 0.00 0.00 61 1015.6
20260507024616 68 0.0 0.0 0.00 0.00 0.00 60 1015.5
20260507023616 69 0.0 0.0 0.00 0.00 0.00 59 1015.5
20260507022616 70 0.0 0.0 0.00 0.00 0.00 59 1015.2
20260507021616 70 0.0 0.0 0.00 0.00 0.00 58 1015.2
20260507020616 71 0.0 0.0 0.00 0.00 0.00 57 1015.1
20260507015616 71 0.0 0.0 0.00 0.00 0.00 57 1015.0
20260507014616 72 0.0 0.0 0.00 0.00 0.00 56 1014.9